| time (UTC) | temp F | wind direction | speed MPH | gust MPH | rain 1hr in | rain 24hr in | rain mn in | humidity % | barometer mb |
| 20260906093636 | 76 | 150 | 1.0 | 6.0 | 0.00 | 0.00 | 0.00 | 86 | 980.8 |
| 20260906092735 | 76 | 159 | 5.0 | 5.0 | 0.00 | 0.00 | 0.00 | 85 | 980.3 |
| 20260906091835 | 76 | 350 | 1.0 | 4.0 | 0.00 | 0.00 | 0.00 | 84 | 979.6 |
| 20260906090935 | 76 | 320 | 3.0 | 4.0 | 0.00 | 0.00 | 0.00 | 84 | 980.0 |
| 20260906090035 | 76 | 315 | 1.0 | 5.0 | 0.00 | 0.00 | 0.00 | 85 | 979.8 |
| 20260906085135 | 76 | 309 | 2.0 | 4.0 | 0.00 | 0.00 | 0.00 | 84 | 979.8 |
| 20260906084236 | 76 | 304 | 3.0 | 5.0 | 0.00 | 0.00 | 0.00 | 84 | 979.9 |
| 20260906083336 | 76 | 324 | 5.0 | 5.0 | 0.00 | 0.00 | 0.00 | 84 | 979.7 |
| 20260906082435 | 76 | 318 | 4.0 | 5.0 | 0.00 | 0.00 | 0.00 | 84 | 979.4 |
| 20260906081535 | 76 | 336 | 3.0 | 4.0 | 0.00 | 0.00 | 0.00 | 83 | 979.3 |
| 20260906080635 | 76 | 354 | 3.0 | 4.0 | 0.00 | 0.00 | 0.00 | 83 | 979.3 |
| 20260906075735 | 76 | 323 | 4.0 | 4.0 | 0.00 | 0.00 | 0.00 | 83 | 979.6 |
| 20260906074835 | 76 | 327 | 3.0 | 5.0 | 0.00 | 0.00 | 0.00 | 83 | 979.4 |
| 20260906073935 | 77 | 323 | 3.0 | 4.0 | 0.00 | 0.00 | 0.00 | 81 | 979.5 |
| 20260906073035 | 77 | 319 | 4.0 | 4.0 | 0.00 | 0.00 | 0.00 | 81 | 979.4 |
| 20260906071235 | 77 | 312 | 3.0 | 9.0 | 0.00 | 0.00 | 0.00 | 83 | 979.8 |
| 20260906065435 | 76 | 306 | 3.0 | 18.0 | 0.00 | 0.00 | 0.00 | 93 | 979.8 |
| 20260906064535 | 75 | 322 | 5.0 | 7.0 | 0.00 | 0.00 | 0.00 | 93 | 979.5 |
| 20260906063635 | 75 | 346 | 1.0 | 2.0 | 0.00 | 0.00 | 0.00 | 93 | 979.0 |
| 20260906062735 | 75 | 1 | 1.0 | 2.0 | 0.00 | 0.00 | 0.00 | 93 | 979.0 |
| 20260906061835 | 75 | 1 | 0.0 | 1.0 | 0.00 | 0.00 | 0.00 | 93 | 978.9 |
| 20260906060936 | 76 | 1 | 1.0 | 2.0 | 0.00 | 0.00 | 0.00 | 93 | 979.1 |
| 20260906060035 | 75 | 1 | 1.0 | 2.0 | 0.00 | 0.00 | 0.00 | 93 | 978.8 |
| 20260906054236 | 75 | 90 | 0.0 | 1.0 | 0.00 | 0.00 | 0.00 | 93 | 978.8 |
| 20260906052435 | 75 | 45 | 1.0 | 2.0 | 0.00 | 0.00 | 0.00 | 92 | 978.9 |
| 20260906050635 | 76 | 0 | 0.0 | 0.0 | 0.00 | 0.00 | 0.00 | 92 | 978.9 |
| 20260906045735 | 76 | 0 | 0.0 | 0.0 | 0.00 | 0.00 | 0.00 | 92 | 979.0 |
| 20260906044835 | 76 | 45 | 0.0 | 1.0 | 0.00 | 0.00 | 0.00 | 91 | 979.0 |
| 20260906043935 | 76 | 0 | 0.0 | 0.0 | 0.00 | 0.00 | 0.00 | 91 | 979.2 |
| 20260906043036 | 76 | 0 | 0.0 | 0.0 | 0.00 | 0.00 | 0.00 | 91 | 979.4 |
| 20260906042135 | 76 | 0 | 0.0 | 0.0 | 0.00 | 0.00 | 0.00 | 91 | 979.3 |
| 20260906041235 | 77 | 0 | 0.0 | 0.0 | 0.00 | 0.00 | 0.00 | 90 | 979.5 |
| 20260906040335 | 77 | 0 | 0.0 | 0.0 | 0.00 | 0.00 | 0.00 | 90 | 979.4 |
| 20260906035435 | 77 | 0 | 0.0 | 0.0 | 0.00 | 0.00 | 0.00 | 89 | 979.3 |
| 20260906034536 | 77 | 0 | 0.0 | 0.0 | 0.00 | 0.00 | 0.00 | 89 | 979.3 |
| 20260906033635 | 77 | 1 | 0.0 | 2.0 | 0.00 | 0.00 | 0.00 | 89 | 979.4 |
| 20260906032735 | 77 | 1 | 1.0 | 2.0 | 0.00 | 0.00 | 0.00 | 88 | 979.4 |
| 20260906031835 | 77 | 1 | 0.0 | 1.0 | 0.00 | 0.00 | 0.00 | 88 | 979.4 |
| 20260906030935 | 77 | 1 | 0.0 | 2.0 | 0.00 | 0.00 | 0.00 | 88 | 979.2 |
| 20260906030035 | 78 | 344 | 0.0 | 4.0 | 0.00 | 0.00 | 0.00 | 88 | 979.3 |
| 20260906025135 | 77 | 135 | 0.0 | 1.0 | 0.00 | 0.00 | 0.00 | 87 | 978.8 |
| 20260906024235 | 78 | 135 | 0.0 | 1.0 | 0.00 | 0.00 | 0.00 | 86 | 978.7 |
| 20260906023335 | 78 | 0 | 0.0 | 0.0 | 0.00 | 0.00 | 0.00 | 85 | 978.6 |
| 20260906022435 | 78 | 0 | 0.0 | 0.0 | 0.00 | 0.00 | 0.00 | 84 | 978.6 |
| 20260906021535 | 79 | 0 | 0.0 | 0.0 | 0.00 | 0.00 | 0.00 | 82 | 978.5 |
| 20260906020634 | 79 | 0 | 0.0 | 0.0 | 0.00 | 0.00 | 0.00 | 82 | 978.4 |
| 20260906015736 | 81 | 135 | 0.0 | 2.0 | 0.00 | 0.00 | 0.00 | 81 | 978.2 |
| 20260906014834 | 81 | 135 | 0.0 | 1.0 | 0.00 | 0.00 | 0.00 | 81 | 978.3 |
| 20260906013935 | 81 | 135 | 0.0 | 1.0 | 0.00 | 0.00 | 0.00 | 80 | 978.2 |
| 20260906013035 | 81 | 135 | 0.0 | 2.0 | 0.00 | 0.00 | 0.00 | 80 | 978.1 |
| 20260906012135 | 82 | 128 | 1.0 | 2.0 | 0.00 | 0.00 | 0.00 | 78 | 978.1 |
| 20260906011235 | 83 | 11 | 1.0 | 2.0 | 0.00 | 0.00 | 0.00 | 76 | 978.2 |
| 20260906010334 | 83 | 1 | 1.0 | 1.0 | 0.00 | 0.00 | 0.00 | 75 | 978.0 |
| 20260906005435 | 84 | 1 | 0.0 | 1.0 | 0.00 | 0.00 | 0.00 | 74 | 978.0 |
| 20260906004535 | 84 | 1 | 0.0 | 1.0 | 0.00 | 0.00 | 0.00 | 71 | 977.9 |
| 20260906003635 | 85 | 1 | 0.0 | 1.0 | 0.00 | 0.00 | 0.00 | 70 | 977.8 |
| 20260906002735 | 86 | 23 | 0.0 | 2.0 | 0.00 | 0.00 | 0.00 | 66 | 977.9 |
| 20260906001835 | 87 | 45 | 0.0 | 1.0 | 0.00 | 0.00 | 0.00 | 63 | 977.8 |
| 20260906000935 | 88 | 45 | 0.0 | 1.0 | 0.00 | 0.00 | 0.00 | 62 | 977.9 |
| 20260906000036 | 90 | 0 | 0.0 | 0.0 | 0.00 | 0.00 | 0.00 | 58 | 977.8 |
| 20260905232436 | 94 | 37 | 0.0 | 2.0 | 0.00 | 0.00 | 0.00 | 51 | 978.2 |
| 20260905230635 | 95 | 131 | 1.0 | 3.0 | 0.00 | 0.00 | 0.00 | 47 | 977.9 |
| 20260905224834 | 95 | 146 | 1.0 | 4.0 | 0.00 | 0.00 | 0.00 | 45 | 978.0 |
| 20260905223935 | 96 | 136 | 3.0 | 4.0 | 0.00 | 0.00 | 0.00 | 47 | 977.8 |
| 20260905223034 | 96 | 140 | 2.0 | 4.0 | 0.00 | 0.00 | 0.00 | 46 | 978.0 |
| 20260905222135 | 97 | 116 | 1.0 | 3.0 | 0.00 | 0.00 | 0.00 | 44 | 978.0 |
| 20260905221234 | 97 | 124 | 2.0 | 3.0 | 0.00 | 0.00 | 0.00 | 43 | 978.0 |
| 20260905220335 | 97 | 150 | 2.0 | 4.0 | 0.00 | 0.00 | 0.00 | 40 | 978.0 |
| 20260905215434 | 97 | 121 | 0.0 | 6.0 | 0.00 | 0.00 | 0.00 | 43 | 978.2 |
| 20260905213634 | 98 | 132 | 2.0 | 4.0 | 0.00 | 0.00 | 0.00 | 44 | 978.1 |
| 20260905212734 | 97 | 108 | 3.0 | 4.0 | 0.00 | 0.00 | 0.00 | 43 | 978.2 |
| 20260905211834 | 97 | 142 | 1.0 | 6.0 | 0.00 | 0.00 | 0.00 | 45 | 978.2 |
| 20260905210934 | 97 | 152 | 4.0 | 6.0 | 0.00 | 0.00 | 0.00 | 48 | 978.4 |
| 20260905210036 | 97 | 277 | 4.0 | 6.0 | 0.00 | 0.00 | 0.00 | 47 | 978.3 |
| 20260905204234 | 96 | 142 | 1.0 | 4.0 | 0.00 | 0.00 | 0.00 | 46 | 978.4 |
| 20260905203334 | 97 | 152 | 2.0 | 4.0 | 0.00 | 0.00 | 0.00 | 42 | 978.6 |
| 20260905202434 | 98 | 356 | 2.0 | 7.0 | 0.00 | 0.00 | 0.00 | 43 | 978.5 |
| 20260905201536 | 98 | 358 | 2.0 | 4.0 | 0.00 | 0.00 | 0.00 | 43 | 978.7 |
| 20260905200634 | 97 | 272 | 1.0 | 5.0 | 0.00 | 0.00 | 0.00 | 42 | 979.0 |
| 20260905195735 | 96 | 22 | 3.0 | 4.0 | 0.00 | 0.00 | 0.00 | 50 | 979.1 |
| 20260905194834 | 96 | 355 | 2.0 | 8.0 | 0.00 | 0.00 | 0.00 | 49 | 979.1 |
| 20260905193934 | 97 | 356 | 8.0 | 8.0 | 0.00 | 0.00 | 0.00 | 41 | 979.2 |
| 20260905193035 | 97 | 86 | 2.0 | 5.0 | 0.00 | 0.00 | 0.00 | 41 | 979.3 |
| 20260905192134 | 97 | 136 | 2.0 | 5.0 | 0.00 | 0.00 | 0.00 | 42 | 979.7 |
| 20260905191234 | 97 | 304 | 3.0 | 5.0 | 0.00 | 0.00 | 0.00 | 42 | 979.7 |
| 20260905190334 | 97 | 151 | 2.0 | 8.0 | 0.00 | 0.00 | 0.00 | 43 | 979.8 |
| 20260905185434 | 96 | 77 | 2.0 | 5.0 | 0.00 | 0.00 | 0.00 | 50 | 979.9 |
| 20260905184534 | 96 | 127 | 0.0 | 4.0 | 0.00 | 0.00 | 0.00 | 47 | 979.9 |
| 20260905183634 | 97 | 291 | 3.0 | 5.0 | 0.00 | 0.00 | 0.00 | 43 | 979.9 |
| 20260905181834 | 97 | 60 | 2.0 | 4.0 | 0.00 | 0.00 | 0.00 | 43 | 980.2 |
| 20260905180035 | 96 | 336 | 1.0 | 5.0 | 0.00 | 0.00 | 0.00 | 45 | 980.3 |
| 20260905175134 | 97 | 27 | 2.0 | 5.0 | 0.00 | 0.00 | 0.00 | 47 | 980.4 |
| 20260905174234 | 96 | 87 | 2.0 | 4.0 | 0.00 | 0.00 | 0.00 | 50 | 980.3 |
| 20260905173334 | 96 | 73 | 3.0 | 4.0 | 0.00 | 0.00 | 0.00 | 50 | 980.4 |
| 20260905172434 | 96 | 342 | 2.0 | 4.0 | 0.00 | 0.00 | 0.00 | 50 | 980.4 |
| 20260905171534 | 96 | 356 | 3.0 | 4.0 | 0.00 | 0.00 | 0.00 | 50 | 980.5 |
| 20260905165734 | 95 | 54 | 4.0 | 5.0 | 0.00 | 0.00 | 0.00 | 52 | 980.6 |
| 20260905164834 | 95 | 100 | 3.0 | 4.0 | 0.00 | 0.00 | 0.00 | 52 | 981.0 |
| 20260905163934 | 94 | 341 | 2.0 | 5.0 | 0.00 | 0.00 | 0.00 | 52 | 981.0 |
| 20260905162134 | 94 | 345 | 3.0 | 4.0 | 0.00 | 0.00 | 0.00 | 51 | 981.1 |
| 20260905160335 | 94 | 36 | 1.0 | 3.0 | 0.00 | 0.00 | 0.00 | 51 | 981.4 |
| 20260905155435 | 94 | 36 | 1.0 | 3.0 | 0.00 | 0.00 | 0.00 | 51 | 981.4 |
| 20260905154534 | 93 | 317 | 0.0 | 4.0 | 0.00 | 0.00 | 0.00 | 52 | 981.4 |
| 20260905153634 | 93 | 72 | 2.0 | 4.0 | 0.00 | 0.00 | 0.00 | 53 | 981.5 |
| 20260905152734 | 92 | 76 | 1.0 | 3.0 | 0.00 | 0.00 | 0.00 | 55 | 981.3 |
| 20260905151834 | 92 | 16 | 1.0 | 3.0 | 0.00 | 0.00 | 0.00 | 57 | 981.4 |
| 20260905150934 | 91 | 69 | 1.0 | 3.0 | 0.00 | 0.00 | 0.00 | 57 | 981.6 |
| 20260905150035 | 90 | 80 | 1.0 | 3.0 | 0.00 | 0.00 | 0.00 | 59 | 981.5 |
| 20260905145134 | 90 | 90 | 1.0 | 2.0 | 0.00 | 0.00 | 0.00 | 58 | 981.7 |
| 20260905144234 | 89 | 8 | 0.0 | 4.0 | 0.00 | 0.00 | 0.00 | 58 | 981.4 |
| 20260905143335 | 90 | 53 | 1.0 | 3.0 | 0.00 | 0.00 | 0.00 | 59 | 981.7 |
| 20260905142434 | 89 | 76 | 0.0 | 2.0 | 0.00 | 0.00 | 0.00 | 61 | 981.5 |
| 20260905141534 | 88 | 124 | 2.0 | 3.0 | 0.00 | 0.00 | 0.00 | 64 | 981.5 |
| 20260905135734 | 87 | 38 | 0.0 | 2.0 | 0.00 | 0.00 | 0.00 | 73 | 981.6 |
| 20260905134834 | 85 | 4 | 0.0 | 2.0 | 0.00 | 0.00 | 0.00 | 79 | 981.5 |
| 20260905133934 | 83 | 45 | 0.0 | 1.0 | 0.00 | 0.00 | 0.00 | 91 | 981.6 |
| 20260905133034 | 80 | 45 | 1.0 | 2.0 | 0.00 | 0.00 | 0.00 | 91 | 981.6 |
| 20260905132134 | 79 | 41 | 0.0 | 2.0 | 0.00 | 0.00 | 0.00 | 93 | 981.5 |
| 20260905131235 | 78 | 23 | 0.0 | 2.0 | 0.00 | 0.00 | 0.00 | 95 | 981.7 |
| 20260905130334 | 76 | 23 | 1.0 | 2.0 | 0.00 | 0.00 | 0.00 | 96 | 981.4 |
| 20260905125434 | 75 | 14 | 1.0 | 2.0 | 0.00 | 0.00 | 0.00 | 97 | 981.4 |
| 20260905124535 | 74 | 1 | 0.0 | 1.0 | 0.00 | 0.00 | 0.00 | 97 | 981.5 |
| 20260905123635 | 74 | 1 | 0.0 | 2.0 | 0.00 | 0.00 | 0.00 | 97 | 981.4 |
| 20260905122734 | 74 | 1 | 0.0 | 1.0 | 0.00 | 0.00 | 0.00 | 97 | 981.4 |
| 20260905121835 | 73 | 0 | 0.0 | 0.0 | 0.00 | 0.00 | 0.00 | 95 | 981.3 |
| 20260905120934 | 73 | 0 | 0.0 | 0.0 | 0.00 | 0.00 | 0.00 | 95 | 981.3 |